sat.trackr.live / text

‹ back to catalog

STARLINK-36315

NORAD 67731 · 2026-026L

PAYLOAD ACTIVE UNKNOWN

§ Identity

Operator
Country
US
Launch date
2026-02-11
Launch site
AFWTR
Launch vehicle
Mass (kg)
RCS (m²)

Purposes: comms

External: N2YO · Heavens-Above · Gunter

§ Orbital elements

Epoch: 2026-05-25T03:37:36.317856Z

Period
93.91 min
Inclination
97.2845°
Eccentricity
0.0000585
Mean motion
15.33448445 rev/d
Perigee alt
465.1 km
Apogee alt
465.9 km
Semi-major
6,843.7 km
B*
8.3171e-4
RAAN
198.6716°
Arg perigee
126.3110°
Mean anomaly
233.8187°
Rev number
1,584

§ Raw data

STARLINK-363151 67731U 26026L   26145.15111479  .00026874  00000+0  83171-3 0  99962 67731  97.2845 198.6716 0000585 126.3110 233.8187 15.33448445 15842

JSON: /api/v1/satellites/67731 · /tle

For live sub-satellite position, see the globe view (requires WebGL).

§ Visibility from observer

Set your observer location to see the next 7 days of passes ≥ 10°. The values pass through the URL so the page stays shareable.

No JS? Fill the form by hand. The geolocation button needs JavaScript.